Time,TemperatureF,DewpointF,PressureIn,WindDirection,WindDirectionDegrees,WindSpeedMPH,WindSpeedGustMPH,Humidity,HourlyPrecipIn,Conditions,Clouds,dailyrainin,SoftwareType,DateUTC
2013-01-19 00:00:00,38.0,35.0,30.22,ENE,60,5.0,6.0,88,-99.99,,,-99.99,,2013-01-19 08:00:00,
2013-01-19 00:11:00,38.0,35.0,30.22,ENE,60,5.0,6.0,88,-99.99,,,-99.99,,2013-01-19 08:11:00,
2013-01-19 00:22:00,38.0,35.0,30.22,ENE,60,5.0,6.0,88,-99.99,,,-99.99,,2013-01-19 08:22:00,
2013-01-19 00:32:00,38.0,35.0,30.22,ENE,60,5.0,6.0,88,-99.99,,,-99.99,,2013-01-19 08:32:00,
2013-01-19 00:42:00,38.0,35.0,30.22,ENE,60,5.0,6.0,88,-99.99,,,-99.99,,2013-01-19 08:42:00,
2013-01-19 00:52:00,38.0,35.0,30.22,ENE,60,5.0,6.0,88,-99.99,,,-99.99,,2013-01-19 08:52:00,
2013-01-19 01:00:00,36.0,35.0,30.22,ENE,70,6.0,7.0,97,-99.99,,,-99.99,,2013-01-19 09:00:00,
2013-01-19 01:11:00,36.0,35.0,30.22,ENE,70,6.0,7.0,97,-99.99,,,-99.99,,2013-01-19 09:11:00,
2013-01-19 01:22:00,36.0,35.0,30.22,ENE,70,6.0,7.0,97,-99.99,,,-99.99,,2013-01-19 09:22:00,
2013-01-19 01:32:00,36.0,35.0,30.22,ENE,70,6.0,7.0,97,-99.99,,,-99.99,,2013-01-19 09:32:00,
2013-01-19 01:42:00,36.0,35.0,30.22,ENE,70,6.0,7.0,97,-99.99,,,-99.99,,2013-01-19 09:42:00,
2013-01-19 01:52:00,36.0,35.0,30.22,ENE,70,6.0,7.0,97,-99.99,,,-99.99,,2013-01-19 09:52:00,
2013-01-19 02:00:00,36.0,36.0,30.22,ENE,60,5.0,6.0,99,-99.99,,,-99.99,,2013-01-19 10:00:00,
2013-01-19 02:22:00,36.0,36.0,30.22,ENE,60,5.0,6.0,99,-99.99,,,-99.99,,2013-01-19 10:22:00,
2013-01-19 02:32:00,36.0,36.0,30.22,ENE,60,5.0,6.0,99,-99.99,,,-99.99,,2013-01-19 10:32:00,
2013-01-19 02:42:00,36.0,36.0,30.22,ENE,60,5.0,6.0,99,-99.99,,,-99.99,,2013-01-19 10:42:00,
2013-01-19 02:52:00,36.0,36.0,30.22,ENE,60,5.0,6.0,99,-99.99,,,-99.99,,2013-01-19 10:52:00,
2013-01-19 04:00:00,38.0,33.0,30.22,East,80,7.0,8.0,81,-99.99,,,-99.99,,2013-01-19 12:00:00,
2013-01-19 04:52:00,38.0,33.0,30.22,East,80,7.0,8.0,81,-99.99,,,-99.99,,2013-01-19 12:52:00,
2013-01-19 05:00:00,39.0,33.0,30.22,ENE,70,11.0,13.0,77,-99.99,,,-99.99,,2013-01-19 13:00:00,
2013-01-19 05:11:00,39.0,33.0,30.22,ENE,70,11.0,13.0,77,-99.99,,,-99.99,,2013-01-19 13:11:00,
2013-01-19 05:22:00,39.0,33.0,30.22,ENE,70,11.0,13.0,77,-99.99,,,-99.99,,2013-01-19 13:22:00,
2013-01-19 05:32:00,39.0,33.0,30.22,ENE,70,11.0,13.0,77,-99.99,,,-99.99,,2013-01-19 13:32:00,
2013-01-19 05:42:00,39.0,33.0,30.22,ENE,70,11.0,13.0,77,-99.99,,,-99.99,,2013-01-19 13:42:00,
2013-01-19 05:52:00,39.0,33.0,30.22,ENE,70,11.0,13.0,77,-99.99,,,-99.99,,2013-01-19 13:52:00,
2013-01-19 06:00:00,39.0,32.0,30.23,East,90,8.0,11.0,76,-99.99,,,-99.99,,2013-01-19 14:00:00,
2013-01-19 06:12:00,39.0,32.0,30.23,East,90,8.0,11.0,76,-99.99,,,-99.99,,2013-01-19 14:12:00,
2013-01-19 06:22:00,39.0,32.0,30.23,East,90,8.0,11.0,76,-99.99,,,-99.99,,2013-01-19 14:22:00,
2013-01-19 06:33:00,39.0,32.0,30.23,East,90,8.0,11.0,76,-99.99,,,-99.99,,2013-01-19 14:33:00,
2013-01-19 06:42:00,39.0,32.0,30.23,East,90,8.0,11.0,76,-99.99,,,-99.99,,2013-01-19 14:42:00,
2013-01-19 06:52:00,39.0,32.0,30.23,East,90,8.0,11.0,76,-99.99,,,-99.99,,2013-01-19 14:52:00,
2013-01-19 07:00:00,39.0,32.0,30.23,East,90,13.0,16.0,75,-99.99,,,-99.99,,2013-01-19 15:00:00,
2013-01-19 07:11:00,39.0,32.0,30.23,East,90,13.0,16.0,75,-99.99,,,-99.99,,2013-01-19 15:11:00,
2013-01-19 07:22:00,39.0,32.0,30.23,East,90,13.0,16.0,75,-99.99,,,-99.99,,2013-01-19 15:22:00,
2013-01-19 07:32:00,39.0,32.0,30.23,East,90,13.0,16.0,75,-99.99,,,-99.99,,2013-01-19 15:32:00,
2013-01-19 07:42:00,39.0,32.0,30.23,East,90,13.0,16.0,75,-99.99,,,-99.99,,2013-01-19 15:42:00,
2013-01-19 07:52:00,39.0,32.0,30.23,East,90,13.0,16.0,75,-99.99,,,-99.99,,2013-01-19 15:52:00,
2013-01-19 08:00:00,39.0,31.0,30.25,SE,130,6.0,7.0,73,-99.99,,,-99.99,,2013-01-19 16:00:00,
2013-01-19 08:12:00,39.0,31.0,30.25,SE,130,6.0,7.0,73,-99.99,,,-99.99,,2013-01-19 16:12:00,
2013-01-19 08:22:00,39.0,31.0,30.25,SE,130,6.0,7.0,73,-99.99,,,-99.99,,2013-01-19 16:22:00,
2013-01-19 08:32:00,39.0,31.0,30.25,SE,130,6.0,7.0,73,-99.99,,,-99.99,,2013-01-19 16:32:00,
2013-01-19 08:42:00,39.0,31.0,30.25,SE,130,6.0,7.0,73,-99.99,,,-99.99,,2013-01-19 16:42:00,
2013-01-19 08:52:00,39.0,31.0,30.25,SE,130,6.0,7.0,73,-99.99,,,-99.99,,2013-01-19 16:52:00,
2013-01-19 09:00:00,42.0,31.0,30.27,East,90,5.0,6.0,65,-99.99,,,-99.99,,2013-01-19 17:00:00,
2013-01-19 09:22:00,42.0,31.0,30.27,East,90,5.0,6.0,65,-99.99,,,-99.99,,2013-01-19 17:22:00,
2013-01-19 10:22:00,43.0,40.0,30.30,SSW,200,2.0,5.0,91,-99.99,,,-99.99,,2013-01-19 18:22:00,
2013-01-19 10:32:00,43.0,40.0,30.30,SSW,200,2.0,5.0,91,-99.99,,,-99.99,,2013-01-19 18:32:00,
2013-01-19 10:42:00,43.0,40.0,30.30,SSW,200,2.0,5.0,91,-99.99,,,-99.99,,2013-01-19 18:42:00,
2013-01-19 10:52:00,43.0,40.0,30.30,SSW,200,2.0,5.0,91,-99.99,,,-99.99,,2013-01-19 18:52:00,
2013-01-19 11:11:00,43.0,41.0,30.30,SW,220,6.0,7.0,92,-99.99,,,-99.99,,2013-01-19 19:11:00,
2013-01-19 11:22:00,43.0,41.0,30.30,SW,220,6.0,7.0,92,-99.99,,,-99.99,,2013-01-19 19:22:00,
2013-01-19 11:32:00,43.0,41.0,30.30,SW,220,6.0,7.0,92,-99.99,,,-99.99,,2013-01-19 19:32:00,
2013-01-19 11:42:00,43.0,41.0,30.30,SW,220,6.0,7.0,92,-99.99,,,-99.99,,2013-01-19 19:42:00,
2013-01-19 11:52:00,43.0,41.0,30.30,SW,220,6.0,7.0,92,-99.99,,,-99.99,,2013-01-19 19:52:00,
2013-01-19 12:00:00,44.0,41.0,30.28,SW,220,6.0,8.0,90,-99.99,,,-99.99,,2013-01-19 20:00:00,
2013-01-19 12:22:00,44.0,41.0,30.28,SW,220,6.0,8.0,90,-99.99,,,-99.99,,2013-01-19 20:22:00,
2013-01-19 12:32:00,44.0,41.0,30.28,SW,220,6.0,8.0,90,-99.99,,,-99.99,,2013-01-19 20:32:00,
2013-01-19 12:42:00,44.0,41.0,30.28,SW,220,6.0,8.0,90,-99.99,,,-99.99,,2013-01-19 20:42:00,
2013-01-19 12:52:00,44.0,41.0,30.28,SW,220,6.0,8.0,90,-99.99,,,-99.99,,2013-01-19 20:52:00,
2013-01-19 13:32:00,42.0,41.0,30.27,WSW,240,6.0,7.0,95,-99.99,,,-99.99,,2013-01-19 21:32:00,
2013-01-19 13:52:00,42.0,41.0,30.27,WSW,240,6.0,7.0,95,-99.99,,,-99.99,,2013-01-19 21:52:00,
2013-01-19 14:00:00,42.0,42.0,30.27,SSW,200,3.0,5.0,99,-99.99,,,-99.99,,2013-01-19 22:00:00,
2013-01-19 14:32:00,42.0,42.0,30.27,SSW,200,3.0,5.0,99,-99.99,,,-99.99,,2013-01-19 22:32:00,
2013-01-19 14:52:00,42.0,42.0,30.27,SSW,200,3.0,5.0,99,-99.99,,,-99.99,,2013-01-19 22:52:00,
2013-01-19 15:00:00,42.0,42.0,30.27,NW,310,3.0,5.0,100,-99.99,,,-99.99,,2013-01-19 23:00:00,
2013-01-19 15:11:00,42.0,42.0,30.27,NW,310,3.0,5.0,100,-99.99,,,-99.99,,2013-01-19 23:11:00,
2013-01-19 15:32:00,42.0,42.0,30.27,NW,310,3.0,5.0,100,-99.99,,,-99.99,,2013-01-19 23:32:00,
2013-01-19 15:42:00,42.0,42.0,30.27,NW,310,3.0,5.0,100,-99.99,,,-99.99,,2013-01-19 23:42:00,
2013-01-19 15:52:00,42.0,42.0,30.27,NW,310,3.0,5.0,100,-99.99,,,-99.99,,2013-01-19 23:52:00,
2013-01-19 16:00:00,42.0,42.0,30.27,North,0,0.0,2.0,100,-99.99,,,-99.99,,2013-01-20 00:00:00,
2013-01-19 16:12:00,42.0,42.0,30.27,North,0,0.0,2.0,100,-99.99,,,-99.99,,2013-01-20 00:12:00,
2013-01-19 16:32:00,42.0,42.0,30.27,North,0,0.0,2.0,100,-99.99,,,-99.99,,2013-01-20 00:32:00,
2013-01-19 16:52:00,42.0,42.0,30.27,North,0,0.0,2.0,100,-99.99,,,-99.99,,2013-01-20 00:52:00,
2013-01-19 17:00:00,41.0,41.0,30.28,SW,220,2.0,3.0,100,-99.99,,,-99.99,,2013-01-20 01:00:00,
2013-01-19 17:32:00,41.0,41.0,30.28,SW,220,2.0,3.0,100,-99.99,,,-99.99,,2013-01-20 01:32:00,
2013-01-19 17:42:00,41.0,41.0,30.28,SW,220,2.0,3.0,100,-99.99,,,-99.99,,2013-01-20 01:42:00,
2013-01-19 17:52:00,41.0,41.0,30.28,SW,220,2.0,3.0,100,-99.99,,,-99.99,,2013-01-20 01:52:00,
2013-01-19 18:53:00,41.0,41.0,30.28,NW,320,7.0,9.0,100,-99.99,,,-99.99,,2013-01-20 02:53:00,
2013-01-19 19:11:00,42.0,42.0,30.29,ENE,60,2.0,3.0,100,-99.99,,,-99.99,,2013-01-20 03:11:00,
2013-01-19 19:22:00,42.0,42.0,30.29,ENE,60,2.0,3.0,100,-99.99,,,-99.99,,2013-01-20 03:22:00,
2013-01-19 19:42:00,42.0,42.0,30.29,ENE,60,2.0,3.0,100,-99.99,,,-99.99,,2013-01-20 03:42:00,
2013-01-19 19:52:00,42.0,42.0,30.29,ENE,60,2.0,3.0,100,-99.99,,,-99.99,,2013-01-20 03:52:00,
2013-01-19 20:00:00,41.0,41.0,30.30,East,80,7.0,9.0,100,-99.99,,,-99.99,,2013-01-20 04:00:00,
2013-01-19 20:22:00,41.0,41.0,30.30,East,80,7.0,9.0,100,-99.99,,,-99.99,,2013-01-20 04:22:00,
2013-01-19 20:42:00,41.0,41.0,30.30,East,80,7.0,9.0,100,-99.99,,,-99.99,,2013-01-20 04:42:00,
2013-01-19 20:52:00,41.0,41.0,30.30,East,80,7.0,9.0,100,-99.99,,,-99.99,,2013-01-20 04:52:00,
2013-01-19 21:00:00,40.0,40.0,30.30,East,80,7.0,8.0,100,-99.99,,,-99.99,,2013-01-20 05:00:00,
2013-01-19 21:12:00,40.0,40.0,30.30,East,80,7.0,8.0,100,-99.99,,,-99.99,,2013-01-20 05:12:00,
2013-01-19 21:22:00,40.0,40.0,30.30,East,80,7.0,8.0,100,-99.99,,,-99.99,,2013-01-20 05:22:00,
2013-01-19 21:32:00,40.0,40.0,30.30,East,80,7.0,8.0,100,-99.99,,,-99.99,,2013-01-20 05:32:00,
2013-01-19 21:42:00,40.0,40.0,30.30,East,80,7.0,8.0,100,-99.99,,,-99.99,,2013-01-20 05:42:00,
2013-01-19 21:52:00,40.0,40.0,30.30,East,80,7.0,8.0,100,-99.99,,,-99.99,,2013-01-20 05:52:00,
2013-01-19 22:00:00,40.0,40.0,30.30,ENE,70,5.0,6.0,100,-99.99,,,-99.99,,2013-01-20 06:00:00,
2013-01-19 22:11:00,40.0,40.0,30.30,ENE,70,5.0,6.0,100,-99.99,,,-99.99,,2013-01-20 06:11:00,
2013-01-19 22:22:00,40.0,40.0,30.30,ENE,70,5.0,6.0,100,-99.99,,,-99.99,,2013-01-20 06:22:00,
2013-01-19 22:32:00,40.0,40.0,30.30,ENE,70,5.0,6.0,100,-99.99,,,-99.99,,2013-01-20 06:32:00,
2013-01-19 22:42:00,40.0,40.0,30.30,ENE,70,5.0,6.0,100,-99.99,,,-99.99,,2013-01-20 06:42:00,
2013-01-19 22:52:00,40.0,40.0,30.30,ENE,70,5.0,6.0,100,-99.99,,,-99.99,,2013-01-20 06:52:00,
2013-01-19 23:00:00,39.0,39.0,30.30,ENE,60,3.0,3.0,100,-99.99,,,-99.99,,2013-01-20 07:00:00,
2013-01-19 23:22:00,39.0,39.0,30.30,ENE,60,3.0,3.0,100,-99.99,,,-99.99,,2013-01-20 07:22:00,
2013-01-19 23:32:00,39.0,39.0,30.30,ENE,60,3.0,3.0,100,-99.99,,,-99.99,,2013-01-20 07:32:00,
2013-01-19 23:42:00,39.0,39.0,30.30,ENE,60,3.0,3.0,100,-99.99,,,-99.99,,2013-01-20 07:42:00,
2013-01-19 23:52:00,39.0,39.0,30.30,ENE,60,3.0,3.0,100,-99.99,,,-99.99,,2013-01-20 07:52:00,